Capo Mele, Italy

3:09 PM CET on November 21, 2017 (GMT +0100)
Capo Mele

Weather History for LIMU - October, 2012

Change the Weather History Date:

Thursday, October 25, 2012

  Actual Average Record
Temperature  
Mean Temperature 66 °F -  
Max Temperature 72 °F 59 °F 72 °F (2012)
Min Temperature 61 °F 50 °F 50 °F (2007)
Cooling Degree Days 2    
Growing Degree Days 16 (Base 50)    
Moisture  
Dew Point 46 °F    
Average Humidity 50    
Maximum Humidity 78    
Minimum Humidity 21    
Precipitation  
Precipitation 0.00 in 0.10 in - ()
Sea Level Pressure  
Sea Level Pressure 29.95 in    
Wind  
Wind Speed 5 mph ()    
Max Wind Speed 12 mph    
Max Gust Speed -    
Visibility 7.9 miles    
Events      
Averages and records for this station are not official NWS values.
T = Trace of Precipitation, MM = Missing Value Source: Averaged Metar Reports

Daily Weather History Graph

Daily Weather History Graph

Search for Another Location

Airport or City:

Trip Planner

Search our weather history database for the weather conditions in past years. The results will help you decide how hot, cold, wet, or windy it might be!

Date:

Astronomy

Oct. 25, 2012 Rise Set
Actual Time 7:54 AM CEST 6:27 PM CEST
Civil Twilight 7:25 AM CEST 6:56 PM CEST
Nautical Twilight 6:51 AM CEST 7:30 PM CEST
Astronomical Twilight 6:18 AM CEST 8:03 PM CEST
Moon 4:12 PM CEST (10/25) 3:26 AM CEST (10/25)
Length of Visible Light 11h 31m
Length of Day
10h 32m
Waxing Gibbous, 82% of the Moon is Illuminated
Oct 25
Waxing Gibbous
Oct 29
Full
Nov 7
Last Quarter
Nov 13
New
Nov 20
First Quarter

Hourly Weather History & Observations

Time (CEST) Temp. Dew Point Humidity Pressure Visibility Wind Dir Wind Speed Gust Speed Precip Events Conditions
12:55 AM 64.4 °F 35.6 °F 34% 30.01 in - North 4.6 mph - N/A   Clear
1:55 AM 64.4 °F 33.8 °F 32% 30.01 in - North 4.6 mph - N/A   Clear
2:00 AM 65 °F 34 °F 21% 30.00 in 12 mi North 4.6 mph - -  
2:55 AM 64.4 °F 33.8 °F 32% 29.98 in - North 5.8 mph - N/A   Clear
4:55 AM 62.6 °F 33.8 °F 34% 29.98 in - NE 4.6 mph - N/A   Clear
5:55 AM 62.6 °F 33.8 °F 34% 29.98 in - NNE 3.5 mph - N/A   Clear
6:55 AM 62.6 °F 33.8 °F 34% 29.98 in - NNE 6.9 mph - N/A   Clear
7:55 AM 62.6 °F 33.8 °F 34% 29.98 in - NNE 6.9 mph - N/A   Clear
8:00 AM 63 °F 35 °F 23% 29.97 in 12 mi NNE 6.9 mph - -  
8:55 AM 64.4 °F 37.4 °F 37% 29.98 in - NE 5.8 mph - N/A   Clear
9:55 AM 68.0 °F 39.2 °F 35% 29.98 in - NE 5.8 mph - N/A   Clear
10:55 AM 69.8 °F 42.8 °F 38% 29.98 in - NNE 6.9 mph - N/A   Clear
11:55 AM 71.6 °F 42.8 °F 35% 29.98 in - NNE 8.1 mph - N/A   Clear
12:55 PM 71.6 °F 46.4 °F 41% 29.98 in - NE 9.2 mph - N/A   Clear
1:55 PM 73.4 °F 57.2 °F 57% 29.95 in 6.2 mi NNE 10.4 mph - N/A   Partly Cloudy
2:00 PM 73 °F 57 °F 47% 29.94 in 12 mi NNE 10.4 mph - -   Scattered Clouds
2:55 PM 69.8 °F 59.0 °F 68% 29.92 in 6.2 mi NNE 11.5 mph - N/A   Partly Cloudy
3:55 PM 68.0 °F 60.8 °F 78% 29.92 in 6.2 mi NNE 10.4 mph - N/A   Scattered Clouds
4:55 PM 66.2 °F 59.0 °F 78% 29.92 in 6.2 mi North 4.6 mph - N/A   Scattered Clouds
5:55 PM 66.2 °F 59.0 °F 78% 29.89 in 6.2 mi North 4.6 mph - N/A   Scattered Clouds
6:55 PM 64.4 °F 55.4 °F 73% 29.89 in 6.2 mi SE 1.2 mph - N/A   Partly Cloudy
8:00 PM 64 °F 55 °F 65% 29.89 in 12 mi NNW 2.3 mph - -   Partly Cloudy
8:55 PM 62.6 °F 53.6 °F 72% 29.89 in 6.2 mi North 3.5 mph - N/A   Scattered Clouds
9:55 PM 62.6 °F 53.6 °F 72% 29.89 in 6.2 mi Variable 1.2 mph - N/A   Mostly Cloudy
10:55 PM 62.6 °F 51.8 °F 68% 29.89 in 6.2 mi NNW 2.3 mph - N/A   Mostly Cloudy
11:55 PM 62.6 °F 51.8 °F 68% 29.89 in 6.2 mi SSW 5.8 mph - N/A   Scattered Clouds